KB4QOR Weather Reports


Display with metric or nautical units.
time (UTC)temp
F
wind
direction
speed
MPH
gust
MPH
rain 1hr
in
rain 24hr
in
rain mn
in
humidity
%
barometer
mb
20260902131535 74 0 0.0 3.0 0.00 0.00 0.00 100 1020.4
20260902130038 74 0 0.0 2.0 0.00 0.00 0.00 100 1020.3
20260902124539 73 0 0.0 2.0 0.00 0.00 0.00 100 1020.2
20260902123033 73 0 0.0 1.0 0.00 0.00 0.00 100 1020.0
20260902121533 73 0 0.0 0.0 0.00 0.00 0.00 100 1020.0
20260902120039 73 0 0.0 0.0 0.00 0.00 0.00 100 1019.9
20260902114537 73 0 0.0 0.0 0.00 0.00 0.00 100 1019.7
20260902113034 73 0 0.0 0.0 0.00 0.00 0.00 100 1019.6
20260902111532 73 0 0.0 0.0 0.00 0.00 0.00 100 1019.6
20260902110038 73 0 0.0 0.0 0.00 0.00 0.00 100 1019.5
20260902104535 73 0 0.0 0.0 0.00 0.00 0.00 100 1019.3
20260902103036 74 0 0.0 0.0 0.00 0.00 0.00 100 1019.2
20260902101533 74 0 0.0 0.0 0.00 0.00 0.00 100 1019.0
20260902100034 74 0 0.0 0.0 0.00 0.00 0.00 100 1019.0
20260902094537 74 0 0.0 0.0 0.00 0.00 0.00 100 1018.9
20260902093040 74 0 0.0 0.0 0.00 0.00 0.00 100 1018.8
20260902091538 75 0 0.0 0.0 0.00 0.00 0.00 100 1018.7
20260902090037 75 0 0.0 0.0 0.00 0.00 0.00 100 1018.6
20260902084538 75 0 0.0 0.0 0.00 0.00 0.00 100 1018.5
20260902083035 75 0 0.0 0.0 0.00 0.00 0.00 100 1018.5
20260902081538 76 0 0.0 0.0 0.00 0.00 0.00 100 1018.5
20260902080039 76 0 0.0 0.0 0.00 0.00 0.00 100 1018.4
20260902074547 76 0 0.0 0.0 0.00 0.00 0.00 100 1018.4
20260902073037 76 0 0.0 0.0 0.00 0.00 0.00 100 1018.2
20260902071533 76 0 0.0 0.0 0.00 0.00 0.00 100 1018.3
20260902070035 77 0 0.0 0.0 0.00 0.00 0.00 100 1018.3
20260902064536 77 0 0.0 0.0 0.00 0.00 0.00 100 1018.3
20260902063054 77 0 0.0 0.0 0.00 0.00 0.00 100 1018.3
20260902061536 78 0 0.0 0.0 0.00 0.00 0.00 100 1018.4
20260902060036 78 0 0.0 0.0 0.00 0.00 0.00 100 1018.6
20260902054535 78 0 0.0 0.0 0.00 0.00 0.00 100 1018.6
20260902053035 78 0 0.0 0.0 0.00 0.00 0.00 100 1018.4
20260902051544 79 0 0.0 0.0 0.00 0.00 0.00 100 1018.2
20260902050035 79 0 0.0 0.0 0.00 0.00 0.00 100 1018.3
20260902044537 79 0 0.0 0.0 0.00 0.00 0.00 100 1018.3
20260902043044 80 0 0.0 0.0 0.00 0.00 0.00 100 1018.2
20260902041551 80 0 0.0 0.0 0.00 0.00 0.00 100 1018.3
20260902040035 80 0 0.0 0.0 0.00 0.00 0.00 100 1018.3
20260902034534 81 0 0.0 0.0 0.00 0.00 0.00 9 1018.3
20260902033035 81 0 0.0 0.0 0.00 0.00 0.00 13 1018.4
20260902031537 81 0 0.0 0.0 0.00 0.00 0.00 18 1018.5
20260902030034 82 0 0.0 0.0 0.00 0.00 0.00 24 1018.6
20260902024536 82 0 0.0 0.0 0.00 0.00 0.00 31 1018.5
20260902023038 83 0 0.0 0.0 0.00 0.00 0.00 34 1018.5
20260902021538 84 0 0.0 0.0 0.00 0.00 0.00 46 1018.4
20260902020038 85 0 0.0 0.0 0.00 0.00 0.00 51 1018.5
20260902014538 85 0 0.0 0.0 0.00 0.00 0.00 53 1018.5
20260902013048 87 0 0.0 0.0 0.00 0.00 0.00 55 1018.4
20260902011537 88 0 0.0 0.0 0.00 0.00 0.00 58 1018.2
20260902010047 90 0 0.0 0.0 0.00 0.00 0.00 60 1018.1
20260902004537 91 0 0.0 0.0 0.00 0.00 0.00 62 1018.0
20260902003113 94 0 0.0 0.0 0.00 0.00 0.00 62 1018.0
20260902001537 96 0 0.0 0.0 0.00 0.00 0.00 62 1018.1
20260902000037 97 0 0.0 0.0 0.00 0.00 0.00 61 1018.0
20260901234533 98 0 0.0 0.0 0.00 0.00 0.00 61 1018.1
20260901233037 99 0 0.0 0.0 0.00 0.00 0.00 60 1018.2
20260901231542 100 0 0.0 1.0 0.00 0.00 0.00 59 1018.3
20260901230033 101 0 0.0 2.0 0.00 0.00 0.00 57 1018.3
20260901224534 101 255 0.0 2.0 0.00 0.00 0.00 57 1018.2
20260901223034 102 0 0.0 4.0 0.00 0.00 0.00 49 1018.3
20260901221539 102 0 0.0 4.0 0.00 0.00 0.00 50 1018.2
20260901220041 102 0 1.0 4.0 0.00 0.00 0.00 48 1018.2
20260901214535 102 0 0.0 6.0 0.00 0.00 0.00 54 1018.2
20260901213037 102 0 0.0 4.0 0.00 0.00 0.00 55 1018.1
20260901211537 101 263 2.0 8.0 0.00 0.00 0.00 49 1018.2
20260901210035 101 273 0.0 4.0 0.00 0.00 0.00 50 1018.2
20260901204535 101 259 0.0 6.0 0.00 0.00 0.00 52 1018.4
20260901203041 100 0 0.0 6.0 0.00 0.00 0.00 52 1018.5
20260901201534 99 277 0.0 3.0 0.00 0.00 0.00 52 1018.6
20260901200036 98 0 1.0 7.0 0.00 0.00 0.00 53 1018.8
20260901194534 98 276 1.0 7.0 0.00 0.00 0.00 55 1018.8
20260901193039 97 90 0.0 6.0 0.00 0.00 0.00 55 1018.9
20260901191539 96 74 0.0 4.0 0.00 0.00 0.00 57 1019.2
20260901190044 95 278 1.0 7.0 0.00 0.00 0.00 58 1019.3
20260901184534 94 90 1.0 7.0 0.00 0.00 0.00 60 1019.5
20260901183033 93 80 1.0 6.0 0.00 0.00 0.00 61 1019.5
20260901181541 92 0 1.0 5.0 0.00 0.00 0.00 62 1019.7
20260901180036 91 98 0.0 3.0 0.00 0.00 0.00 62 1020.0
20260901174543 90 78 2.0 8.0 0.00 0.00 0.00 63 1019.9
20260901173035 87 283 2.0 8.0 0.00 0.00 0.00 63 1020.0
20260901171533 86 90 3.0 11.0 0.00 0.00 0.00 58 1019.9
20260901170034 85 0 1.0 8.0 0.00 0.00 0.00 51 1020.1
20260901164539 84 263 2.0 6.0 0.00 0.00 0.00 37 1020.2
20260901163100 83 0 1.0 7.0 0.00 0.00 0.00 25 1020.4
20260901161535 82 150 1.0 8.0 0.00 0.00 0.00 100 1020.3
20260901160040 82 279 1.0 6.0 0.00 0.00 0.00 100 1020.3
20260901154549 81 96 1.0 7.0 0.00 0.00 0.00 100 1020.5
20260901153042 79 275 2.0 7.0 0.00 0.00 0.00 100 1020.6
20260901151538 78 270 1.0 4.0 0.00 0.00 0.00 100 1020.6
20260901150040 77 277 1.0 6.0 0.00 0.00 0.00 100 1020.7
20260901144539 77 0 1.0 4.0 0.00 0.00 0.00 100 1020.8
20260901143040 76 287 1.0 6.0 0.00 0.00 0.00 100 1020.8
20260901141534 75 272 1.0 4.0 0.00 0.00 0.00 100 1020.8
20260901140036 74 0 0.0 2.0 0.00 0.00 0.00 100 1020.8
20260901134538 74 0 0.0 3.0 0.00 0.00 0.00 100 1020.8
20260901133050 73 0 0.0 1.0 0.00 0.00 0.00 100 1020.9